Location: Hohenfelde
(53.8441°N, 9.6220°E)
Time: 12:05:54
(UTC+00:00)

DELTA 2 DEB (DPAF) - Pass Details

Date: 14 July 2020
Orbit: 641 x 647 km, 98.3° (Epoch: 09 August)

Event Time Altitude Azimuth Distance (km) Brightness Sun altitude
Exits shadow 00:46:50 16° 173° (S) 1,682 5.7 -12.6°
Maximum altitude 00:50:22 71° 256° (WSW) 689 4.2 -12.4°
Drops below altitude 10° 00:54:51 10° 341° (NNW) 2,055 7.5 -12.2°
Sets 00:57:05 0° 344° (NNW) 2,969 8.5 -12.1°
